EN

Hourly Weather Topola

Today, 17 May, Monday

Time Temperature Precipitation Wind Pressure Humidity
00:00 +10°C° 0 mm 1 mps 737 mmHg 90%
01:00 +9°C° 0 mm 1 mps 737 mmHg 89%
02:00 +9°C° 0 mm 1 mps 737 mmHg 89%
03:00 +9°C° 0 mm 1 mps 737 mmHg 90%
04:00 +9°C° 0 mm 1 mps 737 mmHg 90%
05:00 +9°C° 0 mm 2 mps 737 mmHg 87%
06:00 +11°C° 0 mm 3 mps 736 mmHg 85%
07:00 +12°C° 0 mm 3 mps 736 mmHg 82%
08:00 +14°C° 0 mm 3 mps 736 mmHg 76%
09:00 +16°C° 0 mm 3 mps 736 mmHg 71%
10:00 +18°C° 0 mm 4 mps 736 mmHg 65%
11:00 +19°C° 0 mm 3 mps 736 mmHg 63%
12:00 +19°C° 0 mm 3 mps 735 mmHg 61%
13:00 +20°C° 0 mm 3 mps 735 mmHg 59%
14:00 +19°C° 0.2 mm 3 mps 735 mmHg 65%
15:00 +18°C° 0.2 mm 3 mps 735 mmHg 72%
16:00 +17°C° 0.2 mm 4 mps 734 mmHg 78%
17:00 +14°C° 0.2 mm 4 mps 735 mmHg 83%
18:00 +13°C° 0.2 mm 4 mps 735 mmHg 87%
19:00 +10°C° 0.2 mm 5 mps 736 mmHg 92%
20:00 +11°C° 0.8 mm 4 mps 736 mmHg 93%
21:00 +10°C° 0.8 mm 4 mps 736 mmHg 95%
22:00 +10°C° 0.8 mm 3 mps 736 mmHg 96%
23:00 +10°C° 1.5 mm 4 mps 736 mmHg 96%

Tomorrow, 18 May, Tuesday

Time Temperature Precipitation Wind Pressure Humidity
00:00 +10°C° 1.5 mm 4 mps 736 mmHg 96%
01:00 +8°C° 1.5 mm 4 mps 737 mmHg 96%
02:00 +10°C° 0.6 mm 4 mps 737 mmHg 96%
03:00 +10°C° 0.6 mm 4 mps 737 mmHg 96%
04:00 +9°C° 0.6 mm 5 mps 737 mmHg 96%
05:00 +9°C° 0.1 mm 5 mps 737 mmHg 94%
06:00 +9°C° 0.1 mm 6 mps 738 mmHg 93%
07:00 +9°C° 0.1 mm 7 mps 738 mmHg 92%
08:00 +9°C° 0 mm 7 mps 738 mmHg 90%
09:00 +10°C° 0 mm 7 mps 739 mmHg 87%
10:00 +10°C° 0 mm 7 mps 739 mmHg 85%
11:00 +11°C° 0.1 mm 7 mps 739 mmHg 80%
12:00 +12°C° 0.1 mm 7 mps 739 mmHg 75%
13:00 +14°C° 0.1 mm 7 mps 739 mmHg 70%
14:00 +14°C° 0 mm 6 mps 739 mmHg 70%
15:00 +14°C° 0 mm 5 mps 739 mmHg 70%
16:00 +15°C° 0 mm 5 mps 739 mmHg 69%
17:00 +14°C° 0 mm 4 mps 740 mmHg 74%
18:00 +12°C° 0 mm 4 mps 740 mmHg 78%
19:00 +11°C° 0 mm 3 mps 740 mmHg 83%
20:00 +10°C° 0 mm 3 mps 740 mmHg 86%
21:00 +9°C° 0 mm 3 mps 740 mmHg 89%
22:00 +8°C° 0 mm 3 mps 741 mmHg 92%
23:00 +8°C° 0 mm 3 mps 741 mmHg 93%

Day after tomorrow, 19 May, Wednesday

Time Temperature Precipitation Wind Pressure Humidity
00:00 +8°C° 0 mm 3 mps 741 mmHg 94%
01:00 +8°C° 0 mm 3 mps 741 mmHg 94%
02:00 +7°C° 0 mm 3 mps 741 mmHg 95%
03:00 +7°C° 0 mm 3 mps 741 mmHg 95%
04:00 +7°C° 0 mm 3 mps 741 mmHg 96%
05:00 +7°C° 0 mm 4 mps 742 mmHg 92%
06:00 +10°C° 0 mm 4 mps 742 mmHg 87%
07:00 +10°C° 0 mm 5 mps 742 mmHg 83%
08:00 +12°C° 0.1 mm 4 mps 742 mmHg 79%
09:00 +13°C° 0.1 mm 4 mps 742 mmHg 75%
10:00 +14°C° 0.1 mm 4 mps 742 mmHg 71%
11:00 +14°C° 0.2 mm 4 mps 742 mmHg 71%
12:00 +14°C° 0.2 mm 4 mps 742 mmHg 70%
13:00 +15°C° 0.2 mm 4 mps 741 mmHg 70%
14:00 +14°C° 0.3 mm 4 mps 741 mmHg 72%
15:00 +14°C° 0.3 mm 5 mps 741 mmHg 75%
16:00 +13°C° 0.3 mm 5 mps 741 mmHg 77%
17:00 +12°C° 0.7 mm 4 mps 741 mmHg 81%
18:00 +11°C° 0.7 mm 4 mps 741 mmHg 86%
19:00 +10°C° 0.7 mm 3 mps 742 mmHg 90%
20:00 +10°C° 0.6 mm 3 mps 742 mmHg 91%
21:00 +10°C° 0.6 mm 3 mps 742 mmHg 93%
22:00 +9°C° 0.6 mm 3 mps 742 mmHg 94%
23:00 +9°C° 0.5 mm 3 mps 742 mmHg 94%

20 May, Thursday

Time Temperature Precipitation Wind Pressure Humidity
00:00 +9°C° 0.5 mm 3 mps 742 mmHg 94%
01:00 +9°C° 0.5 mm 3 mps 742 mmHg 94%
02:00 +8°C° 0.4 mm 3 mps 742 mmHg 95%
03:00 +8°C° 0.4 mm 3 mps 742 mmHg 95%
04:00 +8°C° 0.4 mm 3 mps 742 mmHg 95%
05:00 +7°C° 0.1 mm 4 mps 742 mmHg 93%
06:00 +8°C° 0.1 mm 4 mps 743 mmHg 92%
07:00 +8°C° 0.1 mm 5 mps 743 mmHg 90%
08:00 +8°C° 0.1 mm 4 mps 743 mmHg 91%
09:00 +8°C° 0.1 mm 4 mps 743 mmHg 91%
10:00 +8°C° 0.1 mm 4 mps 743 mmHg 92%
11:00 +10°C° 0.2 mm 4 mps 744 mmHg 90%
12:00 +10°C° 0.2 mm 4 mps 744 mmHg 89%
13:00 +10°C° 0.2 mm 4 mps 744 mmHg 87%
14:00 +11°C° 0.3 mm 4 mps 744 mmHg 82%
15:00 +12°C° 0.3 mm 4 mps 744 mmHg 78%
16:00 +13°C° 0.3 mm 4 mps 744 mmHg 73%
17:00 +12°C° 0.1 mm 4 mps 744 mmHg 78%
18:00 +11°C° 0.1 mm 3 mps 744 mmHg 82%
19:00 +10°C° 0.1 mm 3 mps 744 mmHg 87%
20:00 +9°C° 0 mm 3 mps 744 mmHg 89%
21:00 +8°C° 0 mm 3 mps 745 mmHg 90%
22:00 +7°C° 0 mm 3 mps 745 mmHg 92%
23:00 +7°C° 0 mm 3 mps 745 mmHg 93%

21 May, Friday

Time Temperature Precipitation Wind Pressure Humidity
00:00 +5°C° 0 mm 3 mps 745 mmHg 95%
01:00 +5°C° 0 mm 3 mps 745 mmHg 96%
02:00 +5°C° 0 mm 3 mps 745 mmHg 96%
03:00 +7°C° 0 mm 3 mps 746 mmHg 95%
04:00 +7°C° 0 mm 3 mps 746 mmHg 95%
05:00 +6°C° 0 mm 4 mps 746 mmHg 92%
06:00 +7°C° 0 mm 4 mps 746 mmHg 90%
07:00 +8°C° 0 mm 5 mps 746 mmHg 87%
08:00 +9°C° 0 mm 5 mps 746 mmHg 78%
09:00 +10°C° 0 mm 5 mps 746 mmHg 70%
10:00 +12°C° 0 mm 5 mps 746 mmHg 61%
11:00 +13°C° 0 mm 4 mps 746 mmHg 57%
12:00 +13°C° 0 mm 3 mps 746 mmHg 53%
13:00 +14°C° 0 mm 3 mps 745 mmHg 48%
14:00 +14°C° 0 mm 3 mps 745 mmHg 51%
15:00 +15°C° 0 mm 2 mps 745 mmHg 53%
16:00 +15°C° 0 mm 2 mps 745 mmHg 55%
17:00 +14°C° 0 mm 2 mps 745 mmHg 59%
18:00 +12°C° 0 mm 1 mps 745 mmHg 63%
19:00 +11°C° 0 mm 1 mps 744 mmHg 67%
20:00 +10°C° 0 mm 1 mps 744 mmHg 68%
21:00 +9°C° 0 mm 1 mps 745 mmHg 69%
22:00 +8°C° 0 mm 2 mps 745 mmHg 70%
23:00 +7°C° 0 mm 2 mps 745 mmHg 71%

22 May, Saturday

Time Temperature Precipitation Wind Pressure Humidity
00:00 +7°C° 0 mm 2 mps 745 mmHg 72%
01:00 +7°C° 0 mm 2 mps 745 mmHg 73%
02:00 +7°C° 0 mm 2 mps 745 mmHg 74%
03:00 +6°C° 0 mm 2 mps 744 mmHg 75%
04:00 +6°C° 0 mm 2 mps 744 mmHg 76%
05:00 +7°C° 0 mm 2 mps 745 mmHg 74%
06:00 +9°C° 0 mm 2 mps 745 mmHg 72%
07:00 +10°C° 0 mm 2 mps 745 mmHg 70%
08:00 +13°C° 0 mm 2 mps 745 mmHg 67%
09:00 +15°C° 0 mm 2 mps 745 mmHg 64%
10:00 +17°C° 0 mm 3 mps 745 mmHg 61%
11:00 +18°C° 0 mm 2 mps 745 mmHg 58%
12:00 +19°C° 0 mm 2 mps 745 mmHg 56%
13:00 +19°C° 0 mm 2 mps 745 mmHg 53%
14:00 +20°C° 0 mm 2 mps 745 mmHg 55%
15:00 +20°C° 0 mm 2 mps 745 mmHg 56%
16:00 +20°C° 0 mm 2 mps 744 mmHg 57%
17:00 +19°C° 0.1 mm 2 mps 745 mmHg 64%
18:00 +17°C° 0.1 mm 2 mps 745 mmHg 72%
19:00 +15°C° 0.1 mm 2 mps 745 mmHg 79%
20:00 +15°C° 0 mm 2 mps 745 mmHg 81%
21:00 +14°C° 0 mm 1 mps 746 mmHg 82%
22:00 +13°C° 0 mm 1 mps 746 mmHg 84%
23:00 +12°C° 0 mm 1 mps 746 mmHg 85%
Show more

We Need Your Consent

Meteoprog and our Service Providers may store and access personal data such as cookies, device identifiers or other similar technologies on your device and process such data to personalise content and ads, as well as provide social media features and to analyse the traffic.

  • Store and/or access information on your device

    Cookies, device identifiers or other information can be stored or accessed on your device for the purposes indicated above.

  • Personalised ads and content, ad and content measurement, audience insights, and products development

    Ads and content can be personalised based on a profile. More data can be added to better personalise ads and content. Ad and content performance can be measured. Insights about the audience who saw the ads and content can be derived. Such data can be used to develop or improve user’s experience, systems and software.

By clicking ‘I Agree’ you will allow the use of indicated cookies, device identifiers, web beacons or other similar technologies. Your settings can be changed in the browser on your device.

For certain purposes, legitimate interests may be relied on, rather than consent. You can read more about this in our Privacy and Cookie Policy.